When you browse on this site, cookies collect data to enhance your experience and personalize the content and advertising you see.
Visit our Privacy Policy to learn more. By continuing to use the site, you agree to this use of cookies and data.

Stündliche Wetter Mixquiahuala

Heute, 15 August, Samstag

Zeit Temperatur Niederschläge Wind Luftdruck Luftfeuchtigkeit
00:00 +13°C° 0 mm 0 m/S 601 mmHg 93%
01:00 +12°C° 0 mm 0 m/S 600 mmHg 93%
02:00 +12°C° 0 mm 0 m/S 600 mmHg 94%
03:00 +12°C° 0 mm 0 m/S 600 mmHg 93%
04:00 +12°C° 0 mm 0 m/S 600 mmHg 93%
05:00 +11°C° 0 mm 0 m/S 600 mmHg 94%
06:00 +13°C° 0 mm 0 m/S 601 mmHg 85%
07:00 +15°C° 0 mm 0 m/S 601 mmHg 77%
08:00 +19°C° 0 mm 1 m/S 602 mmHg 68%
09:00 +21°C° 0 mm 1 m/S 603 mmHg 61%
10:00 +23°C° 0 mm 2 m/S 603 mmHg 53%
11:00 +25°C° 0 mm 3 m/S 604 mmHg 46%
12:00 +25°C° 0.1 mm 4 m/S 604 mmHg 48%
13:00 +25°C° 0.1 mm 5 m/S 603 mmHg 51%
14:00 +24°C° 0.1 mm 7 m/S 602 mmHg 54%
15:00 +23°C° 1.1 mm 7 m/S 602 mmHg 60%
16:00 +21°C° 1.1 mm 6 m/S 602 mmHg 66%
17:00 +20°C° 1.1 mm 6 m/S 601 mmHg 72%
18:00 +19°C° 0.7 mm 5 m/S 602 mmHg 78%
19:00 +18°C° 0.7 mm 3 m/S 602 mmHg 83%
20:00 +17°C° 0.7 mm 2 m/S 602 mmHg 89%
21:00 +16°C° 0.5 mm 2 m/S 602 mmHg 90%
22:00 +16°C° 0.5 mm 1 m/S 602 mmHg 92%
23:00 +15°C° 0.5 mm 0 m/S 602 mmHg 94%

Morgen, 16 August, Sonntag

Zeit Temperatur Niederschläge Wind Luftdruck Luftfeuchtigkeit
00:00 +14°C° 0 mm 0 m/S 602 mmHg 94%
01:00 +14°C° 0 mm 0 m/S 601 mmHg 95%
02:00 +13°C° 0 mm 0 m/S 601 mmHg 95%
03:00 +13°C° 0 mm 0 m/S 601 mmHg 95%
04:00 +13°C° 0 mm 0 m/S 601 mmHg 95%
05:00 +13°C° 0 mm 0 m/S 601 mmHg 95%
06:00 +14°C° 0 mm 0 m/S 602 mmHg 88%
07:00 +16°C° 0 mm 0 m/S 603 mmHg 82%
08:00 +17°C° 0 mm 0 m/S 603 mmHg 76%
09:00 +21°C° 0 mm 1 m/S 604 mmHg 68%
10:00 +22°C° 0 mm 1 m/S 604 mmHg 61%
11:00 +24°C° 0 mm 2 m/S 604 mmHg 54%
12:00 +24°C° 0.5 mm 3 m/S 604 mmHg 56%
13:00 +23°C° 0.5 mm 4 m/S 604 mmHg 59%
14:00 +24°C° 0.5 mm 6 m/S 603 mmHg 61%
15:00 +22°C° 1 mm 6 m/S 603 mmHg 66%
16:00 +21°C° 1 mm 6 m/S 602 mmHg 71%
17:00 +20°C° 1 mm 6 m/S 602 mmHg 76%
18:00 +19°C° 0.4 mm 5 m/S 602 mmHg 81%
19:00 +18°C° 0.4 mm 3 m/S 602 mmHg 85%
20:00 +17°C° 0.4 mm 2 m/S 603 mmHg 90%
21:00 +16°C° 0 mm 2 m/S 603 mmHg 92%
22:00 +16°C° 0 mm 1 m/S 602 mmHg 94%
23:00 +15°C° 0 mm 1 m/S 602 mmHg 96%

übermorgen, 17 August, Montag

Zeit Temperatur Niederschläge Wind Luftdruck Luftfeuchtigkeit
00:00 +15°C° 0 mm 1 m/S 602 mmHg 96%
01:00 +14°C° 0 mm 0 m/S 602 mmHg 96%
02:00 +14°C° 0 mm 0 m/S 602 mmHg 97%
03:00 +14°C° 0 mm 0 m/S 602 mmHg 96%
04:00 +14°C° 0 mm 0 m/S 602 mmHg 95%
05:00 +14°C° 0 mm 0 m/S 602 mmHg 94%
06:00 +16°C° 0 mm 1 m/S 603 mmHg 89%
07:00 +18°C° 0 mm 1 m/S 603 mmHg 85%
08:00 +19°C° 0 mm 1 m/S 604 mmHg 80%
09:00 +19°C° 0 mm 2 m/S 604 mmHg 73%
10:00 +21°C° 0 mm 2 m/S 604 mmHg 66%
11:00 +23°C° 0 mm 2 m/S 605 mmHg 59%
12:00 +23°C° 0.3 mm 4 m/S 604 mmHg 58%
13:00 +23°C° 0.3 mm 5 m/S 604 mmHg 57%
14:00 +24°C° 0.3 mm 6 m/S 604 mmHg 56%
15:00 +23°C° 0.7 mm 6 m/S 603 mmHg 61%
16:00 +22°C° 0.7 mm 6 m/S 603 mmHg 65%
17:00 +20°C° 0.7 mm 6 m/S 602 mmHg 70%
18:00 +19°C° 0.1 mm 5 m/S 602 mmHg 76%
19:00 +18°C° 0.1 mm 3 m/S 603 mmHg 81%
20:00 +17°C° 0.1 mm 2 m/S 603 mmHg 87%
21:00 +16°C° 0 mm 2 m/S 602 mmHg 90%
22:00 +15°C° 0 mm 1 m/S 602 mmHg 92%
23:00 +15°C° 0 mm 1 m/S 602 mmHg 95%

18 August, Dienstag

Zeit Temperatur Niederschläge Wind Luftdruck Luftfeuchtigkeit
00:00 +14°C° 0 mm 1 m/S 602 mmHg 96%
01:00 +13°C° 0 mm 0 m/S 601 mmHg 97%
02:00 +13°C° 0 mm 0 m/S 601 mmHg 97%
03:00 +13°C° 0 mm 0 m/S 601 mmHg 97%
04:00 +12°C° 0 mm 0 m/S 601 mmHg 97%
05:00 +12°C° 0 mm 0 m/S 601 mmHg 97%
06:00 +14°C° 0 mm 0 m/S 602 mmHg 91%
07:00 +15°C° 0 mm 0 m/S 603 mmHg 85%
08:00 +16°C° 0 mm 0 m/S 603 mmHg 79%
09:00 +20°C° 0 mm 1 m/S 604 mmHg 70%
10:00 +21°C° 0 mm 2 m/S 604 mmHg 62%
11:00 +24°C° 0 mm 2 m/S 604 mmHg 54%
12:00 +24°C° 0.1 mm 3 m/S 604 mmHg 54%
13:00 +23°C° 0.1 mm 5 m/S 604 mmHg 54%
14:00 +24°C° 0.1 mm 6 m/S 603 mmHg 55%
15:00 +23°C° 0.4 mm 6 m/S 603 mmHg 60%
16:00 +22°C° 0.4 mm 6 m/S 602 mmHg 66%
17:00 +20°C° 0.4 mm 6 m/S 602 mmHg 72%
18:00 +19°C° 0.1 mm 4 m/S 602 mmHg 79%
19:00 +17°C° 0.1 mm 3 m/S 602 mmHg 86%
20:00 +16°C° 0.1 mm 2 m/S 601 mmHg 92%
21:00 +15°C° 0 mm 1 m/S 601 mmHg 93%
22:00 +15°C° 0 mm 1 m/S 601 mmHg 93%
23:00 +14°C° 0 mm 0 m/S 601 mmHg 93%

19 August, Mittwoch

Zeit Temperatur Niederschläge Wind Luftdruck Luftfeuchtigkeit
00:00 +14°C° 0 mm 0 m/S 601 mmHg 92%
01:00 +14°C° 0 mm 0 m/S 601 mmHg 91%
02:00 +14°C° 0 mm 0 m/S 601 mmHg 89%
03:00 +14°C° 0 mm 0 m/S 601 mmHg 89%
04:00 +14°C° 0 mm 0 m/S 600 mmHg 88%
05:00 +14°C° 0 mm 0 m/S 600 mmHg 87%
06:00 +15°C° 0 mm 0 m/S 601 mmHg 79%
07:00 +17°C° 0 mm 0 m/S 602 mmHg 72%
08:00 +20°C° 0 mm 1 m/S 602 mmHg 65%
09:00 +21°C° 0 mm 1 m/S 603 mmHg 60%
10:00 +21°C° 0 mm 2 m/S 603 mmHg 55%
11:00 +24°C° 0 mm 2 m/S 603 mmHg 50%
12:00 +25°C° 0.1 mm 3 m/S 603 mmHg 49%
13:00 +25°C° 0.1 mm 4 m/S 603 mmHg 48%
14:00 +26°C° 0.1 mm 5 m/S 602 mmHg 46%
15:00 +25°C° 0 mm 5 m/S 602 mmHg 52%
16:00 +22°C° 0 mm 5 m/S 601 mmHg 57%
17:00 +21°C° 0 mm 5 m/S 601 mmHg 63%
18:00 +19°C° 0 mm 4 m/S 601 mmHg 70%
19:00 +18°C° 0 mm 3 m/S 600 mmHg 78%
20:00 +16°C° 0 mm 1 m/S 600 mmHg 85%
21:00 +15°C° 0 mm 1 m/S 600 mmHg 87%
22:00 +13°C° 0 mm 0 m/S 600 mmHg 89%
23:00 +13°C° 0 mm 0 m/S 600 mmHg 92%

20 August, Donnerstag

Zeit Temperatur Niederschläge Wind Luftdruck Luftfeuchtigkeit
00:00 +12°C° 0 mm 0 m/S 599 mmHg 91%
01:00 +12°C° 0 mm 0 m/S 599 mmHg 91%
02:00 +12°C° 0 mm 0 m/S 599 mmHg 91%
03:00 +11°C° 0 mm 0 m/S 599 mmHg 90%
04:00 +11°C° 0 mm 0 m/S 599 mmHg 89%
05:00 +11°C° 0 mm 0 m/S 599 mmHg 88%
06:00 +13°C° 0 mm 0 m/S 600 mmHg 77%
07:00 +15°C° 0 mm 0 m/S 601 mmHg 67%
08:00 +18°C° 0 mm 0 m/S 602 mmHg 57%
09:00 +21°C° 0 mm 1 m/S 602 mmHg 50%
10:00 +23°C° 0 mm 1 m/S 602 mmHg 44%
11:00 +24°C° 0 mm 2 m/S 603 mmHg 37%
12:00 +25°C° 0 mm 2 m/S 602 mmHg 36%
13:00 +26°C° 0 mm 3 m/S 602 mmHg 35%
14:00 +27°C° 0 mm 4 m/S 601 mmHg 35%
15:00 +25°C° 0 mm 4 m/S 601 mmHg 43%
16:00 +23°C° 0 mm 5 m/S 601 mmHg 50%
17:00 +22°C° 0 mm 5 m/S 600 mmHg 58%
18:00 +20°C° 0 mm 4 m/S 600 mmHg 68%
19:00 +18°C° 0 mm 2 m/S 600 mmHg 78%
20:00 +16°C° 0 mm 1 m/S 600 mmHg 88%
21:00 +16°C° 0 mm 1 m/S 600 mmHg 90%
22:00 +15°C° 0 mm 1 m/S 599 mmHg 92%
23:00 +14°C° 0 mm 1 m/S 599 mmHg 95%
Mehr zeigen